Location: Karcze
(52.0945°N, 22.4786°E)
Time: 22:12:32
(UTC+00:00)

Transit 2A Rocket - Pass Details

Date: 04 August 2021
Orbit: 586 x 917 km, 66.7° (Epoch: 26 September)

Event Time Altitude Azimuth Distance (km) Brightness Sun altitude
Rises 22:04:24 0° 308° (NW) 3,319 9.0 -20.6°
Reaches altitude 10° 22:08:09 10° 282° (WNW) 2,454 7.8 -20.7°
Maximum altitude 22:10:37 13° 256° (WSW) 2,279 7.4 -20.7°
Enters shadow 22:12:23 12° 237° (WSW) 2,407 7.3 -20.7°
Drops below altitude 10° 22:13:10 10° 230° (SW) 2,525 - -20.7°
Sets 22:17:10 0° 204° (SSW) 3,505 - -20.8°
